Location: Montreal
(45.5087°N, 73.5540°W)
Time: 01:31:43
(UTC-04:00)

Tiangong 2 - Visible Passes

Search period start: 28 June 2017 00:00
Search period end: 08 July 2017 00:00
Orbit: 391 x 396 km, 42.8° (Epoch: 26 June)

Date Brightness Start Highest point End Pass type
(mag) Time Alt. Az. Time Alt. Az. Time Alt. Az.
29 Jun 3.5 04:11:38 10° S 04:13:06 12° SSE 04:14:34 10° ESE visible
01 Jul 2.8 03:54:45 14° SSW 03:56:25 20° SSE 03:58:54 10° ESE visible
02 Jul 3.4 03:00:28 14° SE 03:00:28 14° SE 03:01:44 10° ESE visible
03 Jul 2.1 03:38:32 22° SSW 03:39:47 30° SSE 03:42:41 10° E visible
04 Jul 3.0 02:44:13 19° SE 02:44:13 19° SE 02:45:50 10° ESE visible
04 Jul 1.5 04:16:41 10° WSW 04:19:49 49° S 04:22:57 10° E visible
05 Jul 1.6 03:22:17 32° SSW 03:23:11 41° S 03:26:16 10° E visible
06 Jul 2.9 02:28:00 22° ESE 02:28:00 22° ESE 02:29:31 10° E visible
06 Jul 1.3 04:00:23 12° WSW 04:03:15 52° S 04:06:25 10° ESE visible
07 Jul 1.3 03:06:08 45° SSW 03:06:36 50° S 03:09:44 10° E visible
